User: anonymous   Login
Location: Fort Frances
(48.6170°N, 93.4170°W)
Time: 04:07:39
(UTC-05:00)
Language:

CZ-2C R/B - Orbit

View from above orbital plane
View from above orbital plane
View from above satellite
View from above satellite

Ground track
Ground track

The orbit data is extracted from the following two-line orbital elements,

1 36089U 09061B   16145.90349088  .00000005  00000-0  12327-4 0  9994
2 36089  98.0520 159.0376 0082568 160.6513 261.2632 14.49577574345450
Epoch (UTC): 24 May 2016 21:41:01
Eccentricity: 0.0082568
inclination: 98.0520°
perigee height: 668 km
apogee height: 785 km
right ascension of ascending node: 159.0376°
argument of perigee: 160.6513°
revolutions per day: 14.49577574
mean anomaly at epoch: 261.2632°
orbit number at epoch: 34545

The dashed part of the orbit path shows where the satellite is in the earth's shadow,  

DLR